sat.trackr.live / text

‹ back to catalog

SITRO-AIS 21

NORAD 61739 · 2024-199E

PAYLOAD ACTIVE UNKNOWN

§ Identity

Operator
Country
CIS
Launch date
2024-11-04
Launch site
VOSTO
Launch vehicle
Mass (kg)
RCS (m²)

External: N2YO · Heavens-Above · Gunter

§ Orbital elements

Epoch: 2026-05-25T04:25:35.755104Z

Period
96.32 min
Inclination
97.3275°
Eccentricity
0.0013732
Mean motion
14.95015374 rev/d
Perigee alt
572.8 km
Apogee alt
591.9 km
Semi-major
6,960.5 km
B*
1.9693e-4
RAAN
344.4866°
Arg perigee
134.9974°
Mean anomaly
225.2362°
Rev number
12,831

§ Raw data

SITRO-AIS 211 61739U 24199E   26145.18444161  .00002105  00000+0  19693-3 0  99962 61739  97.3275 344.4866 0013732 134.9974 225.2362 14.95015374128315

JSON: /api/v1/satellites/61739 · /tle

For live sub-satellite position, see the globe view (requires WebGL).

§ Visibility from observer

Set your observer location to see the next 7 days of passes ≥ 10°. The values pass through the URL so the page stays shareable.

No JS? Fill the form by hand. The geolocation button needs JavaScript.

§ Radio — SatNOGS DB

ModeDescriptionDownlinkUplink
GMSK USP Mode U - GMSK2k4 - USP 401.175 MHz

1 transmitter · refreshed weekly from db.satnogs.org